TimeCST,TemperatureF,Dew PointF,Humidity,Sea Level PressureIn,VisibilityMPH,Wind Direction,Wind SpeedMPH,Gust SpeedMPH,PrecipitationIn,Events,Conditions,WindDirDegrees,DateUTC
12:58 AM,20.8,10.2,64,30.26,10.0,North,20.7,31.1,N/A,,Mostly Cloudy,350,2014-01-21 06:58:00
1:04 AM,21.2,10.4,63,30.23,10.0,NNW,23.0,31.1,N/A,Snow,Light Snow,340,2014-01-21 07:04:00
1:16 AM,19.4,8.6,63,30.24,10.0,NNW,26.5,38.0,N/A,Snow,Light Snow,340,2014-01-21 07:16:00
1:58 AM,17.8,6.8,62,30.30,10.0,NNW,27.6,38.0,0.00,,Overcast,330,2014-01-21 07:58:00
2:58 AM,13.6,2.7,62,30.36,10.0,NNW,24.2,33.4,N/A,,Scattered Clouds,330,2014-01-21 08:58:00
3:58 AM,11.8,1.0,62,30.40,10.0,NNW,24.2,32.2,N/A,,Mostly Cloudy,340,2014-01-21 09:58:00
4:58 AM,10.2,0.7,65,30.43,10.0,North,18.4,21.9,N/A,,Mostly Cloudy,350,2014-01-21 10:58:00
5:16 AM,10.4,1.4,67,30.39,10.0,North,17.3,24.2,N/A,Snow,Light Snow,350,2014-01-21 11:16:00
5:40 AM,10.4,1.4,67,30.41,10.0,NNW,19.6,24.2,N/A,,Overcast,340,2014-01-21 11:40:00
5:58 AM,9.0,-0.4,66,30.45,10.0,NNW,20.7,-,0.00,,Mostly Cloudy,340,2014-01-21 11:58:00
6:36 AM,6.8,-2.2,67,30.43,10.0,North,13.8,-,N/A,,Clear,350,2014-01-21 12:36:00
6:58 AM,6.8,-1.7,68,30.48,10.0,NNW,13.8,-,N/A,,Partly Cloudy,340,2014-01-21 12:58:00
7:58 AM,5.7,-4.0,64,30.49,10.0,NNW,15.0,-,N/A,,Clear,340,2014-01-21 13:58:00
8:58 AM,7.3,-3.8,60,30.49,10.0,NNW,12.7,-,N/A,,Clear,340,2014-01-21 14:58:00
9:58 AM,9.3,-3.1,57,30.52,10.0,NNW,10.4,-,N/A,,Clear,340,2014-01-21 15:58:00
10:58 AM,10.8,-3.6,52,30.50,10.0,NNW,9.2,-,N/A,,Clear,330,2014-01-21 16:58:00
11:58 AM,13.1,-3.5,48,30.47,10.0,Variable,6.9,-,N/A,,Clear,0,2014-01-21 17:58:00
12:58 PM,14.5,-4.7,42,30.40,10.0,Variable,5.8,-,N/A,,Clear,0,2014-01-21 18:58:00
1:58 PM,16.7,-4.9,38,30.38,10.0,Variable,2.3,-,N/A,,Clear,0,2014-01-21 19:58:00
2:58 PM,17.6,-5.6,36,30.35,10.0,Variable,2.3,-,N/A,,Clear,0,2014-01-21 20:58:00
3:58 PM,18.9,-5.1,35,30.31,10.0,Variable,2.3,-,N/A,,Partly Cloudy,0,2014-01-21 21:58:00
4:58 PM,18.3,-2.9,39,30.29,10.0,SE,3.5,-,N/A,,Partly Cloudy,140,2014-01-21 22:58:00
5:58 PM,17.1,-1.8,43,30.28,10.0,SSE,4.6,-,N/A,,Partly Cloudy,150,2014-01-21 23:58:00
6:58 PM,18.0,-1.1,43,30.26,10.0,South,5.8,-,N/A,,Scattered Clouds,170,2014-01-22 00:58:00
7:58 PM,18.1,1.8,49,30.27,10.0,SSW,6.9,-,N/A,,Mostly Cloudy,210,2014-01-22 01:58:00
8:58 PM,18.7,0.5,45,30.25,10.0,SSW,6.9,-,N/A,,Overcast,210,2014-01-22 02:58:00
9:58 PM,19.4,0.7,44,30.24,10.0,SSW,8.1,-,N/A,,Overcast,200,2014-01-22 03:58:00
10:58 PM,20.3,2.3,46,30.22,10.0,South,8.1,-,N/A,,Overcast,180,2014-01-22 04:58:00
11:58 PM,20.7,3.0,47,30.18,10.0,SSW,9.2,-,N/A,,Overcast,200,2014-01-22 05:58:00